| time (UTC) | temp F | wind direction | speed knots | gust knots | rain 1hr in | rain 24hr in | rain mn in | humidity % | barometer mb |
| 20260505065908 | 55 | 34 | 0.9 | 6.1 | 0.00 | 0.12 | 0.12 | 71 | 1005.5 |
| 20260505064914 | 55 | 138 | 0.9 | 6.1 | 0.00 | 0.12 | 0.12 | 74 | 1006.0 |
| 20260505063917 | 56 | 158 | 0.9 | 4.3 | 0.00 | 0.10 | 0.10 | 78 | 1004.8 |
| 20260505061751 | 57 | 345 | 0.0 | 3.5 | 0.00 | 0.10 | 0.10 | 85 | 1004.9 |
| 20260505060722 | 58 | 265 | 0.0 | 2.6 | 0.00 | 0.10 | 0.10 | 87 | 1004.3 |
| 20260505055714 | 58 | 216 | 0.0 | 0.0 | 0.00 | 0.10 | 0.10 | 87 | 1003.7 |
| 20260505054730 | 58 | 215 | 0.0 | 0.9 | 0.00 | 0.10 | 0.10 | 85 | 1003.3 |
| 20260505053752 | 59 | 215 | 0.0 | 0.0 | 0.08 | 0.10 | 0.10 | 82 | 1003.5 |
| 20260505052720 | 60 | 120 | 0.0 | 0.9 | 0.10 | 0.09 | 0.09 | 75 | 1003.6 |
| 20260505051730 | 64 | 355 | 0.9 | 7.0 | 0.10 | 0.04 | 0.04 | 65 | 1003.2 |
| 20260505050702 | 70 | 74 | 1.7 | 9.6 | 0.00 | 0.00 | 0.00 | 48 | 1003.3 |
| 20260505040252 | 73 | 163 | 1.7 | 10.4 | 0.00 | 0.00 | 0.00 | 67 | 1001.7 |
| 20260505035244 | 73 | 187 | 1.7 | 7.8 | 0.00 | 0.00 | 0.00 | 67 | 1001.8 |
| 20260505033123 | 73 | 188 | 0.9 | 7.0 | 0.00 | 0.00 | 0.00 | 65 | 1001.9 |
| 20260505032140 | 74 | 203 | 0.9 | 5.2 | 0.00 | 0.00 | 0.00 | 64 | 1001.8 |
| 20260505031146 | 74 | 192 | 0.9 | 4.3 | 0.00 | 0.00 | 0.00 | 63 | 1001.7 |
| 20260505030202 | 74 | 198 | 0.0 | 4.3 | 0.00 | 0.00 | 0.00 | 61 | 1001.6 |
| 20260505022915 | 74 | 191 | 0.0 | 0.9 | 0.00 | 0.00 | 0.00 | 57 | 1001.2 |
| 20260505021903 | 74 | 272 | 0.0 | 0.0 | 0.00 | 0.00 | 0.00 | 55 | 1001.0 |
| 20260505020850 | 74 | 275 | 0.0 | 0.0 | 0.00 | 0.00 | 0.00 | 54 | 1000.9 |
| 20260505012448 | 77 | 277 | 0.0 | 0.0 | 0.00 | 0.00 | 0.00 | 50 | 1000.4 |
| 20260505011457 | 78 | 277 | 0.0 | 0.0 | 0.00 | 0.00 | 0.00 | 49 | 1000.3 |
| 20260505010424 | 78 | 277 | 0.0 | 0.0 | 0.00 | 0.00 | 0.00 | 48 | 1000.0 |
| 20260505005449 | 79 | 277 | 0.0 | 0.0 | 0.00 | 0.00 | 0.00 | 47 | 1000.0 |
| 20260505004421 | 80 | 277 | 0.0 | 0.0 | 0.00 | 0.00 | 0.00 | 47 | 999.9 |
| 20260505002250 | 81 | 276 | 0.0 | 0.9 | 0.00 | 0.00 | 0.00 | 45 | 999.6 |
| 20260505000116 | 81 | 242 | 0.0 | 3.5 | 0.00 | 0.00 | 0.00 | 45 | 999.6 |
| 20260504235058 | 81 | 211 | 0.0 | 1.7 | 0.00 | 0.00 | 0.00 | 45 | 999.6 |
| 20260504234054 | 81 | 206 | 0.0 | 4.3 | 0.00 | 0.00 | 0.00 | 44 | 999.7 |
| 20260504233055 | 81 | 196 | 0.0 | 3.5 | 0.00 | 0.00 | 0.00 | 44 | 999.8 |
| 20260504232117 | 82 | 203 | 0.0 | 8.7 | 0.00 | 0.00 | 0.00 | 42 | 999.7 |
| 20260504231122 | 83 | 267 | 0.9 | 8.7 | 0.00 | 0.00 | 0.00 | 41 | 999.7 |
| 20260504223958 | 81 | 254 | 0.9 | 5.2 | 0.00 | 0.00 | 0.00 | 43 | 999.8 |
| 20260504222929 | 82 | 286 | 0.9 | 5.2 | 0.00 | 0.00 | 0.00 | 42 | 999.8 |
| 20260504221916 | 82 | 178 | 0.0 | 0.9 | 0.00 | 0.00 | 0.00 | 42 | 999.9 |
| 20260504220902 | 82 | 283 | 0.9 | 6.1 | 0.00 | 0.00 | 0.00 | 40 | 999.8 |
| 20260504214743 | 82 | 202 | 0.9 | 7.0 | 0.00 | 0.00 | 0.00 | 41 | 1000.1 |
| 20260504213726 | 82 | 208 | 0.9 | 7.0 | 0.00 | 0.00 | 0.00 | 43 | 1000.1 |
| 20260504212659 | 82 | 142 | 0.9 | 7.0 | 0.00 | 0.00 | 0.00 | 41 | 1000.3 |
| 20260504211658 | 83 | 179 | 1.7 | 7.0 | 0.00 | 0.00 | 0.00 | 41 | 1000.2 |
| 20260504210631 | 84 | 221 | 0.9 | 9.6 | 0.00 | 0.00 | 0.00 | 40 | 1000.1 |
| 20260504205648 | 83 | 199 | 2.6 | 12.2 | 0.00 | 0.00 | 0.00 | 41 | 1000.3 |
| 20260504204655 | 83 | 188 | 2.6 | 12.2 | 0.00 | 0.00 | 0.00 | 40 | 1000.4 |
| 20260504203720 | 85 | 198 | 0.9 | 8.7 | 0.00 | 0.00 | 0.00 | 39 | 1000.5 |
| 20260504202726 | 84 | 321 | 1.7 | 8.7 | 0.00 | 0.00 | 0.00 | 41 | 1000.5 |
| 20260504201722 | 84 | 226 | 1.7 | 8.7 | 0.00 | 0.00 | 0.00 | 41 | 1000.5 |
| 20260504200737 | 83 | 180 | 1.7 | 8.7 | 0.00 | 0.00 | 0.00 | 41 | 1000.6 |
| 20260504195720 | 83 | 197 | 2.6 | 8.7 | 0.00 | 0.00 | 0.00 | 42 | 1000.7 |
| 20260504194655 | 83 | 192 | 2.6 | 8.7 | 0.00 | 0.00 | 0.00 | 42 | 1000.6 |
| 20260504193637 | 84 | 175 | 0.9 | 7.0 | 0.00 | 0.00 | 0.00 | 41 | 1000.8 |
| 20260504192640 | 83 | 319 | 0.9 | 4.3 | 0.00 | 0.00 | 0.00 | 39 | 1000.8 |
| 20260504185337 | 81 | 209 | 3.5 | 13.9 | 0.00 | 0.00 | 0.00 | 41 | 1001.1 |
| 20260504184306 | 81 | 178 | 1.7 | 10.4 | 0.00 | 0.00 | 0.00 | 45 | 1001.0 |
| 20260504183320 | 80 | 190 | 2.6 | 10.4 | 0.00 | 0.00 | 0.00 | 43 | 1001.1 |
| 20260504181141 | 79 | 205 | 2.6 | 8.7 | 0.00 | 0.00 | 0.00 | 45 | 1001.2 |
| 20260504180134 | 79 | 205 | 2.6 | 8.7 | 0.00 | 0.00 | 0.00 | 44 | 1001.5 |
| 20260504175059 | 79 | 205 | 1.7 | 7.0 | 0.00 | 0.00 | 0.00 | 43 | 1001.5 |
| 20260504174112 | 79 | 300 | 1.7 | 7.8 | 0.00 | 0.00 | 0.00 | 42 | 1001.5 |
| 20260504173117 | 79 | 204 | 1.7 | 8.7 | 0.00 | 0.00 | 0.00 | 44 | 1001.6 |
| 20260504172123 | 78 | 188 | 0.9 | 8.7 | 0.00 | 0.00 | 0.00 | 44 | 1001.7 |
| 20260504171137 | 77 | 264 | 1.7 | 7.8 | 0.00 | 0.00 | 0.00 | 43 | 1001.8 |
| 20260504170119 | 77 | 269 | 1.7 | 12.2 | 0.00 | 0.00 | 0.00 | 46 | 1001.7 |
| 20260504140900 | 68 | 192 | 1.7 | 12.2 | 0.00 | 0.00 | 0.00 | 54 | 1002.5 |
| 20260504130747 | 66 | 224 | 2.6 | 9.6 | 0.00 | 0.00 | 0.00 | 54 | 1002.1 |
| 20260504110559 | 66 | 246 | 0.9 | 7.0 | 0.00 | 0.00 | 0.00 | 53 | 1002.7 |
| 20260504100403 | 67 | 219 | 0.9 | 5.2 | 0.00 | 0.00 | 0.00 | 50 | 1003.1 |
| 20260504081229 | 66 | 191 | 0.9 | 10.4 | 0.00 | 0.00 | 0.00 | 52 | 1003.9 |
| 20260504080249 | 66 | 188 | 0.0 | 2.6 | 0.00 | 0.00 | 0.00 | 53 | 1004.1 |